ONEWEB-0588 (55153 NORAD) Tracking and Keplerian Element Data

This shows tracking and keplerian element data for the satellite.

Feedback or suggestion? Click here.




ElementValue
Catalog55153
NameONEWEB-0588
Epoch Orbit130
Epoch Day13.91667824
Epoch Year2023
RAAN284.1457
Inclination86.5137
Eccentricity0.0008479
Argument of Perigee201.1486
Mean Anonmoly59.278
Mean Motion14.90562407
Decay Rate-0.00049507
L11 55153U 23004P 23013.91667824 -.00049507 00000+0 -51070-2 0 9991
L22 55153 86.5137 284.1457 0008479 201.1486 59.2780 14.90562407 1305



Live tracking and technical data element details for ONEWEB-0588 (NORAD 55153). ONEWEB-0588 can be tracked NOW for your location showing map with azimuth and elevation plus other details from your city location.







IsCatalogInMostPopularTable: catalog: 55153, numindb: 6
Update: records affected: 1



GetName: 55153 ONEWEB-0588

Hit Count: updated at: Tue, 07 Feb 2023 15:22:32 GMT